Wind_Speed
11 10 11 10 9 9 7 7 8 9 9 8 7 6 6 5 5 6 6 7 8 9 10 11 11 11 11 12 13 14 15 16 17 17 17 17 16 15 14 13 12 11 10 9 7 5 4 3 3
10 10 10 10 10 8 7 7 7 8 8 7 6 6 5 5 5 5 6 6 7 8 8 9 10 9 9 9 10 11 12 13 14 15 16 16 16 15 14 14 13 12 11 10 8 7 5 4 4
8 9 10 10 9 7 6 6 7 6 7 6 6 5 4 4 4 4 5 5 6 7 7 8 8 8 8 8 8 8 9 10 11 12 13 14 14 14 14 14 14 13 12 11 10 9 7 5 5
6 7 8 9 7 6 5 5 5 5 6 6 5 4 4 3 3 4 4 5 5 6 7 7 7 7 7 7 6 6 6 6 7 8 9 10 11 12 12 13 13 13 13 13 12 11 9 8 6
4 5 5 6 5 4 3 3 3 4 4 5 5 4 3 3 2 3 4 5 5 6 6 7 7 7 7 6 6 5 4 3 4 4 5 6 7 8 8 9 11 11 12 13 13 12 11 10 8
2 2 2 2 1 1 1 2 2 2 3 3 4 4 4 3 1 1 4 6 7 7 7 7 8 8 8 8 7 6 5 4 4 3 3 3 3 4 5 6 7 8 9 10 11 11 12 11 10
2 1 2 2 3 2 2 2 3 3 3 4 4 5 4 4 3 2 3 6 8 9 9 9 9 9 10 10 10 9 8 7 6 5 4 3 3 3 3 3 3 4 5 6 7 8 9 10 10
5 5 5 6 5 5 5 5 5 6 6 6 7 7 6 6 5 5 5 6 8 10 11 12 12 12 12 12 12 11 11 10 9 8 7 6 5 4 4 3 3 2 2 2 3 4 6 7 7
7 7 8 9 9 8 8 8 9 9 9 9 9 10 10 9 9 8 8 8 9 10 12 13 14 15 15 15 15 14 13 13 12 12 11 10 8 7 7 6 5 4 4 3 1 0 1 2 3
9 10 11 11 11 11 11 11 12 12 13 13 13 12 13 13 13 13 12 12 12 13 13 14 15 17 18 19 18 18 17 16 16 15 14 13 12 11 10 9 8 8 7 6 5 4 3 2 1
11 12 13 14 14 14 14 14 15 16 16 17 17 16 16 16 16 16 17 17 17 17 17 18 18 19 19 20 21 21 20 20 19 18 17 16 15 14 13 12 11 11 10 9 8 8 7 6 6
14 15 16 18 18 19 19 19 19 20 20 20 20 19 19 19 19 19 19 20 21 21 22 22 23 23 23 23 23 23 23 23 22 22 21 20 18 17 16 15 14 13 12 12 11 10 10 10 9
17 19 20 21 22 23 24 24 24 24 24 24 24 23 22 22 23 23 23 24 24 25 25 26 26 27 27 27 26 26 26 26 25 25 24 23 21 20 19 17 16 15 14 14 14 13 13 12 12
21 22 23 24 25 26 27 27 28 28 28 28 28 28 28 28 28 29 29 29 29 29 30 30 31 31 31 31 31 31 32 30 29 28 27 26 25 24 22 21 19 18 16 16 16 15 15 14 14
24 25 26 27 27 28 29 28 29 29 29 30 31 31 31 32 33 34 35 35 35 35 35 36 36 36 36 35 35 35 35 35 34 33 32 31 29 28 26 24 22 20 19 18 18 17 17 17 16
25 27 28 28 28 29 29 29 28 29 29 30 31 32 33 34 35 37 38 40 41 42 42 42 42 42 41 41 40 39 37 37 36 36 35 34 33 32 31 29 26 24 22 21 21 20 19 19 18
26 27 29 29 28 28 29 28 27 28 29 29 30 31 32 34 36 37 40 41 43 45 47 47 48 48 47 46 45 45 44 42 40 39 38 37 36 34 33 31 28 26 24 23 22 22 22 21 21
26 27 28 28 27 27 28 28 28 29 29 29 30 31 32 34 35 37 39 41 43 45 48 50 52 53 52 51 51 50 49 47 44 42 41 39 38 37 35 34 31 28 26 25 24 24 24 24 24
25 26 27 27 27 27 27 28 28 29 29 29 30 31 32 34 35 37 38 41 43 44 46 49 52 53 55 54 54 54 53 52 50 46 43 41 39 36 35 32 31 29 27 26 25 25 25 24 25
25 26 27 27 26 27 27 27 28 28 29 29 30 31 32 33 36 37 38 39 41 43 46 48 50 52 53 54 55 55 55 54 53 51 48 45 42 39 35 33 31 29 29 29 27 26 25 25 24
25 26 26 26 26 26 26 26 26 26 27 28 28 29 31 32 33 34 36 38 39 40 42 45 48 50 51 52 53 55 55 54 54 53 52 50 46 41 39 35 33 31 31 30 29 28 26 25 25
22 22 22 22 23 23 23 25 23 24 25 25 26 27 28 29 30 30 31 32 33 35 38 40 42 45 47 48 49 50 51 51 52 51 51 50 48 44 40 38 35 34 32 31 31 30 28 27 27
17 18 18 19 20 20 20 21 21 21 22 23 24 24 26 27 27 27 27 28 29 30 31 32 33 35 36 38 40 42 44 46 47 47 47 47 45 43 41 38 37 36 35 34 33 31 30 28 27
16 17 17 17 18 18 17 17 17 17 18 19 20 21 22 23 23 23 22 22 23 22 22 22 23 23 24 27 29 33 36 38 41 42 43 43 42 41 40 38 37 37 36 35 34 33 31 30 29
15 16 17 16 15 14 14 14 15 15 15 15 16 16 18 19 20 20 18 18 18 17 17 16 15 14 15 17 21 24 27 30 34 36 38 39 39 39 38 38 38 37 36 35 34 33 33 32 30
15 15 15 15 15 14 13 12 13 13 13 13 13 14 16 17 18 18 16 16 16 15 15 14 12 11 10 11 11 14 18 21 24 28 31 34 35 36 36 37 37 36 36 35 35 34 34 33 32
15 16 15 14 13 13 12 12 12 12 12 13 14 14 16 17 17 16 16 16 14 14 14 14 12 11 8 6 6 8 11 14 18 22 25 28 30 31 32 33 34 34 34 34 34 34 35 35 34
16 16 16 15 14 13 12 11 12 13 13 14 14 14 15 17 18 18 18 18 17 16 16 16 15 13 12 8 4 1 4 7 11 15 19 22 25 27 29 30 31 32 33 33 34 34 35 36 35
17 17 16 16 15 13 12 12 12 13 13 13 13 14 16 16 18 19 20 20 20 20 20 19 18 16 14 13 9 6 2 2 5 8 12 16 19 21 24 26 27 29 30 31 33 34 35 36 36
17 17 17 16 15 14 13 12 12 13 13 13 14 15 16 17 19 20 21 22 23 23 22 22 21 19 17 15 13 10 8 4 1 2 6 9 13 16 18 21 23 25 27 29 31 32 34 35 35
Wind_Direction
70 73 75 75 78 73 81 98 102 105 110 110 106 103 97 98 107 119 123 125 121 117 112 108 105 100 94 89 85 82 82 81 79 80 81 82 83 84 83 83 83 82 81 83 89 94 96 109 147
69 72 74 75 70 66 73 87 97 100 102 107 108 104 101 106 114 126 137 141 137 130 125 121 119 115 109 101 93 87 85 83 81 80 79 79 80 81 81 81 81 81 79 76 78 82 87 95 107
70 72 71 73 70 69 69 75 80 86 92 94 91 91 94 108 123 142 153 163 161 152 144 139 136 134 129 120 111 102 93 88 85 84 81 79 79 79 79 79 79 80 78 75 72 73 75 81 94
75 75 73 73 70 68 69 71 69 73 80 77 74 76 81 108 135 160 175 183 185 179 170 164 160 157 154 150 141 129 116 104 98 92 87 83 80 79 78 78 78 78 77 75 74 74 74 77 87
81 84 79 79 73 69 64 64 58 60 66 59 52 53 56 87 126 173 194 200 203 204 197 191 190 189 186 184 182 177 167 151 134 122 109 98 91 87 83 80 78 76 75 74 74 73 75 78 84
83 100 107 105 103 60 27 15 11 22 32 27 21 19 17 25 58 183 213 220 222 221 219 214 214 216 217 217 215 216 219 216 204 185 166 145 127 112 101 92 85 79 75 72 71 70 71 74 81
283 248 232 235 241 257 290 306 320 322 332 342 341 339 340 333 327 286 244 238 237 236 235 232 230 231 234 234 234 234 237 237 233 227 216 204 186 169 152 133 111 94 85 77 71 67 68 70 74
274 274 271 268 271 275 282 295 299 301 310 315 315 310 306 304 298 289 273 260 252 248 246 244 242 241 242 243 243 243 243 244 244 243 239 231 221 209 200 192 181 165 137 102 82 71 66 65 67
278 280 280 280 283 287 292 299 294 290 294 297 301 298 293 289 284 278 272 268 263 260 258 255 252 249 248 248 248 248 248 248 249 250 250 246 240 232 222 217 215 214 214 217 215 179 80 68 65
283 284 286 290 293 294 295 295 291 289 289 291 293 292 287 284 278 273 269 266 264 263 262 261 259 256 253 252 251 250 250 250 250 252 253 254 251 246 238 232 230 230 231 235 241 245 243 235 232
283 287 290 293 294 293 292 290 288 289 287 288 289 289 287 283 278 273 270 267 265 262 260 259 258 256 254 253 252 250 250 249 249 250 251 252 253 253 249 244 240 239 239 240 242 246 248 245 242
282 285 287 290 290 291 291 289 288 287 287 286 286 286 284 280 275 272 269 268 267 265 261 258 258 255 253 252 251 250 249 248 248 248 248 249 250 252 252 249 246 243 243 243 243 244 247 249 248
278 281 284 286 288 289 289 290 288 287 286 285 284 282 279 277 273 269 267 266 266 265 263 259 257 254 254 253 250 249 249 248 247 246 246 246 246 247 248 249 248 247 246 247 247 247 247 249 250
277 281 283 286 288 288 289 289 289 288 287 286 283 280 276 273 269 267 265 264 262 261 260 259 257 254 251 251 251 249 248 247 246 245 244 243 244 244 244 245 246 247 248 249 249 250 251 252 252
280 283 285 287 288 289 289 289 289 288 287 285 283 280 276 273 270 267 265 262 261 261 260 259 258 255 252 251 252 251 249 247 245 245 244 243 242 242 243 244 244 245 246 248 251 254 256 256 256
284 286 288 290 291 291 290 290 288 286 284 283 281 279 277 273 271 269 266 264 262 260 259 258 257 256 255 252 251 251 251 249 246 245 245 244 243 242 243 242 243 244 245 247 251 255 258 260 259
288 290 291 292 293 292 290 289 288 285 284 282 280 278 277 275 273 271 269 267 264 262 260 258 257 256 255 253 251 250 250 250 248 247 244 243 242 243 243 241 242 243 246 250 253 257 259 261 263
291 292 293 293 293 291 290 289 288 287 286 284 282 280 279 278 276 275 274 273 270 267 264 262 260 258 256 255 254 251 250 249 248 247 245 245 244 243 244 243 241 244 248 250 254 258 260 261 262
292 291 292 293 292 290 289 289 289 288 286 285 284 283 282 281 281 280 279 277 275 273 270 267 265 263 261 258 256 254 252 250 249 248 247 246 245 244 243 244 244 246 249 253 257 261 264 265 262
294 294 294 293 290 289 288 288 288 288 287 286 286 286 285 285 285 284 283 282 279 275 273 271 268 266 264 262 259 257 254 252 251 250 249 247 248 250 250 249 249 250 251 254 259 262 264 266 262
296 295 294 293 291 291 290 289 291 290 290 290 290 291 290 291 291 289 288 286 285 281 278 275 272 269 266 263 260 257 256 254 253 251 250 249 250 251 250 251 252 254 254 255 259 263 265 264 265
300 300 299 298 297 296 296 296 296 296 296 297 298 299 300 300 299 297 296 294 291 287 284 281 277 272 268 265 261 257 255 255 254 252 251 250 251 252 252 252 253 256 258 258 260 263 264 265 267
313 313 311 308 305 304 303 301 303 303 303 305 306 306 308 308 307 307 306 303 300 296 291 286 282 276 270 264 260 256 253 252 252 251 251 250 251 253 254 254 255 257 259 259 261 263 266 266 265
325 323 321 318 314 311 309 309 311 311 311 311 311 312 316 317 316 318 317 316 316 311 305 297 289 283 274 265 259 253 251 249 247 247 249 250 250 251 252 254 255 256 258 259 258 260 262 262 262
335 334 333 332 330 324 321 319 322 324 325 324 321 322 326 328 332 333 332 331 331 331 328 320 305 295 282 270 263 253 247 245 243 243 245 245 245 246 248 249 250 252 254 254 254 255 256 256 257
349 348 346 343 339 336 333 333 337 340 343 343 341 342 346 348 348 349 348 346 345 344 345 342 332 317 300 286 270 253 241 239 240 239 239 240 241 242 243 246 246 247 248 249 250 250 251 252 253
359 358 356 353 351 347 346 346 352 357 358 359 0 3 4 4 5 6 6 5 7 7 8 7 0 355 345 318 284 255 239 237 236 235 233 234 236 237 239 240 242 243 245 247 247 248 248 249 250
10 8 9 10 5 2 360 3 7 8 8 11 15 17 18 21 25 27 28 28 27 27 23 20 16 17 23 24 14 271 216 227 234 233 231 232 232 234 235 237 238 241 243 244 246 246 246 247 248
17 17 17 17 17 13 12 13 15 15 19 26 30 32 35 37 40 42 41 40 39 40 38 35 33 37 35 35 37 39 34 257 236 229 229 231 232 233 235 237 238 239 240 242 243 244 245 246 248
22 22 21 23 23 22 21 24 24 28 33 39 44 46 46 48 50 49 48 47 46 45 44 42 40 39 38 38 37 36 35 29 354 244 229 233 232 233 235 236 238 240 242 243 244 244 246 248 249
Height
5934 5934 5934 5935 5936 5935 5934 5934 5933 5932 5931 5930 5929 5929 5928 5928 5929 5930 5928 5926 5926 5925 5925 5925 5925 5925 5925 5924 5924 5923 5922 5921 5920 5918 5917 5916 5915 5914 5914 5913 5912 5912 5911 5911 5911 5911 5910 5910 5910
5936 5935 5936 5936 5935 5935 5935 5934 5933 5932 5931 5930 5930 5929 5929 5928 5928 5927 5926 5926 5926 5925 5925 5925 5925 5925 5925 5925 5925 5924 5923 5923 5922 5921 5919 5918 5917 5916 5915 5914 5914 5913 5912 5912 5911 5911 5911 5911 5911
5937 5937 5938 5937 5936 5936 5936 5934 5933 5932 5932 5931 5930 5930 5929 5929 5928 5927 5927 5926 5926 5925 5925 5925 5925 5925 5925 5925 5925 5925 5925 5924 5923 5922 5921 5920 5919 5918 5917 5916 5915 5914 5914 5913 5912 5912 5911 5911 5911
5938 5939 5939 5938 5937 5936 5935 5934 5933 5933 5932 5932 5931 5930 5929 5929 5928 5927 5927 5926 5926 5925 5925 5925 5925 5925 5925 5925 5925 5925 5925 5924 5924 5923 5922 5921 5921 5920 5919 5918 5917 5916 5915 5915 5914 5913 5912 5912 5912
5939 5939 5940 5939 5938 5937 5936 5935 5934 5934 5933 5932 5931 5930 5930 5929 5928 5927 5926 5926 5926 5925 5925 5924 5924 5924 5924 5924 5924 5924 5924 5924 5924 5923 5923 5922 5921 5920 5920 5919 5919 5918 5917 5916 5915 5914 5914 5913 5913
5940 5940 5940 5939 5938 5937 5936 5935 5934 5934 5933 5932 5932 5931 5930 5929 5928 5927 5926 5926 5925 5925 5924 5924 5924 5923 5923 5923 5923 5923 5923 5923 5923 5923 5922 5922 5921 5921 5920 5920 5919 5919 5918 5917 5917 5916 5915 5914 5914
5940 5940 5939 5938 5938 5937 5936 5935 5934 5934 5933 5933 5932 5931 5930 5929 5928 5927 5926 5925 5925 5924 5923 5923 5922 5922 5922 5922 5922 5922 5922 5921 5921 5921 5921 5921 5920 5920 5919 5919 5919 5919 5918 5918 5917 5917 5916 5916 5915
5939 5940 5938 5938 5937 5937 5936 5935 5934 5933 5932 5932 5931 5930 5929 5929 5927 5926 5925 5925 5924 5923 5922 5922 5921 5921 5921 5920 5920 5920 5920 5919 5919 5919 5919 5919 5919 5919 5918 5918 5918 5918 5918 5918 5917 5917 5917 5917 5916
5938 5939 5937 5937 5936 5936 5935 5934 5933 5931 5931 5930 5929 5929 5928 5927 5926 5925 5924 5923 5922 5922 5921 5920 5920 5919 5919 5918 5918 5918 5917 5917 5917 5917 5917 5917 5917 5917 5917 5917 5917 5917 5917 5917 5917 5917 5917 5917 5916
5936 5936 5935 5935 5934 5934 5933 5932 5931 5929 5928 5928 5927 5926 5925 5925 5924 5923 5922 5921 5920 5919 5919 5918 5917 5917 5916 5915 5915 5915 5915 5915 5914 5915 5914 5914 5914 5914 5914 5915 5915 5915 5915 5915 5915 5916 5916 5916 5916
5934 5933 5932 5931 5931 5930 5930 5929 5927 5926 5926 5924 5923 5923 5922 5921 5920 5919 5918 5917 5917 5916 5916 5915 5914 5913 5912 5912 5911 5911 5911 5911 5911 5911 5911 5911 5911 5911 5911 5912 5912 5912 5913 5913 5913 5914 5914 5914 5914
5931 5930 5929 5928 5927 5926 5925 5924 5924 5922 5921 5920 5919 5918 5918 5917 5916 5915 5914 5913 5912 5911 5911 5910 5909 5909 5908 5907 5907 5906 5906 5906 5907 5907 5907 5907 5908 5908 5908 5909 5909 5909 5910 5910 5911 5911 5911 5912 5912
5928 5927 5926 5925 5923 5922 5921 5920 5919 5917 5916 5915 5914 5914 5913 5912 5911 5910 5909 5908 5907 5906 5905 5904 5904 5903 5902 5902 5901 5901 5901 5901 5901 5902 5902 5903 5903 5904 5904 5905 5905 5906 5906 5907 5907 5908 5908 5909 5909
5925 5923 5922 5921 5919 5917 5916 5915 5914 5912 5910 5909 5908 5908 5907 5906 5904 5903 5902 5901 5900 5899 5898 5898 5897 5896 5895 5895 5895 5894 5894 5895 5895 5896 5896 5897 5898 5898 5899 5900 5900 5901 5902 5903 5903 5904 5904 5905 5906
5920 5919 5918 5916 5914 5912 5911 5909 5907 5905 5904 5902 5901 5900 5899 5898 5896 5895 5894 5893 5892 5891 5890 5889 5889 5888 5888 5888 5887 5887 5887 5887 5888 5888 5889 5890 5891 5892 5893 5894 5895 5896 5897 5898 5899 5900 5900 5901 5902
5916 5915 5912 5910 5908 5906 5906 5903 5901 5899 5897 5895 5893 5891 5890 5888 5887 5885 5884 5883 5883 5882 5881 5880 5879 5879 5879 5879 5879 5879 5879 5879 5880 5881 5881 5882 5884 5885 5886 5887 5889 5890 5891 5892 5894 5895 5896 5897 5898
5912 5910 5907 5905 5902 5900 5898 5896 5894 5892 5890 5888 5885 5883 5881 5879 5877 5876 5874 5873 5872 5871 5870 5869 5868 5868 5868 5869 5870 5870 5870 5871 5872 5872 5873 5874 5875 5877 5878 5880 5882 5884 5885 5887 5888 5890 5891 5892 5893
5907 5904 5901 5899 5896 5893 5891 5888 5886 5884 5882 5880 5877 5875 5873 5870 5868 5866 5864 5862 5860 5859 5858 5857 5857 5857 5857 5858 5858 5859 5860 5861 5862 5864 5865 5866 5867 5869 5870 5873 5875 5877 5879 5880 5882 5883 5884 5885 5887
5902 5899 5896 5893 5890 5887 5884 5882 5879 5877 5874 5872 5870 5867 5865 5862 5859 5857 5854 5852 5849 5847 5845 5844 5843 5843 5843 5844 5846 5847 5849 5850 5852 5854 5856 5857 5859 5860 5862 5865 5867 5870 5872 5874 5875 5876 5878 5879 5880
5897 5894 5890 5887 5884 5881 5878 5876 5873 5870 5867 5865 5862 5860 5857 5854 5850 5847 5844 5841 5838 5835 5833 5831 5829 5829 5829 5829 5831 5833 5835 5838 5840 5843 5845 5848 5850 5852 5855 5858 5860 5862 5865 5867 5868 5869 5870 5871 5873
5891 5888 5884 5882 5878 5875 5873 5870 5867 5864 5861 5858 5855 5852 5849 5845 5842 5838 5834 5830 5826 5823 5820 5817 5815 5814 5814 5815 5817 5819 5822 5825 5828 5831 5834 5837 5840 5844 5847 5850 5852 5855 5857 5859 5861 5862 5863 5865 5866
5886 5883 5879 5876 5873 5870 5868 5864 5862 5858 5854 5852 5848 5845 5841 5837 5833 5829 5824 5820 5816 5811 5808 5804 5801 5799 5799 5800 5802 5805 5808 5812 5815 5819 5823 5827 5830 5834 5837 5841 5844 5846 5849 5851 5853 5855 5857 5858 5859
5882 5878 5875 5872 5869 5866 5863 5860 5857 5853 5849 5846 5843 5839 5835 5831 5826 5821 5817 5812 5807 5801 5797 5793 5789 5787 5786 5786 5788 5791 5795 5799 5803 5808 5812 5816 5820 5824 5828 5831 5834 5838 5840 5843 5845 5847 5849 5851 5852
5879 5876 5872 5869 5865 5862 5859 5856 5853 5849 5845 5842 5838 5834 5830 5825 5820 5815 5810 5805 5800 5795 5790 5785 5781 5779 5777 5777 5778 5780 5784 5788 5792 5796 5801 5806 5810 5814 5819 5822 5826 5829 5832 5834 5837 5839 5842 5844 5845
5878 5874 5870 5866 5862 5859 5856 5853 5850 5845 5842 5838 5835 5831 5826 5821 5816 5811 5806 5801 5796 5791 5786 5782 5778 5775 5773 5771 5771 5773 5775 5778 5782 5786 5791 5795 5800 5805 5809 5813 5817 5820 5823 5826 5828 5831 5833 5836 5837
5876 5873 5870 5866 5861 5857 5854 5850 5848 5843 5839 5836 5832 5828 5823 5819 5813 5808 5803 5799 5794 5789 5785 5780 5776 5773 5770 5768 5768 5768 5769 5772 5775 5778 5782 5787 5791 5795 5800 5804 5807 5811 5814 5817 5819 5822 5824 5827 5829
5875 5871 5868 5864 5860 5856 5853 5849 5846 5842 5838 5834 5830 5826 5822 5818 5813 5807 5803 5798 5793 5789 5785 5780 5776 5772 5768 5767 5766 5766 5767 5768 5770 5773 5776 5780 5784 5787 5791 5795 5799 5802 5805 5808 5810 5813 5815 5818 5820
5875 5871 5867 5863 5859 5856 5853 5849 5846 5841 5837 5833 5830 5826 5822 5818 5813 5808 5804 5799 5795 5790 5786 5782 5777 5773 5770 5768 5766 5765 5766 5767 5768 5769 5771 5774 5778 5781 5784 5788 5790 5793 5796 5799 5801 5803 5806 5809 5811
5875 5871 5867 5863 5860 5857 5853 5852 5846 5842 5838 5834 5831 5827 5824 5820 5815 5811 5807 5802 5798 5793 5789 5785 5780 5777 5774 5771 5769 5767 5766 5766 5766 5767 5768 5771 5773 5776 5778 5781 5783 5786 5788 5790 5792 5795 5797 5799 5801
5876 5872 5868 5865 5861 5857 5854 5854 5847 5843 5839 5836 5832 5829 5826 5822 5818 5815 5811 5806 5802 5798 5793 5789 5785 5781 5777 5775 5772 5770 5768 5767 5767 5767 5767 5768 5770 5772 5774 5776 5778 5780 5781 5783 5785 5786 5788 5790 5792